Location: Friaudour
(46.0460°N, 1.2873°E)
Time: 15:46:18
(UTC+00:00)

Spot 4 Rocket - Pass Details

Date: 27 October 2020
Orbit: 776 x 781 km, 98.7° (Epoch: 29 November)

Event Time Altitude Azimuth Distance (km) Brightness Sun altitude
Rises 03:35:44 0° 11° (N) 3,270 7.6 -30.5°
Reaches altitude 10° 03:38:04 10° 8° (N) 2,338 6.7 -30.1°
Enters shadow 03:40:28 28° 1° (N) 1,440 5.5 -29.7°
